STARLINK-4421, 53488

Orbit data source: Space-Track

STARLINK-4421, 53488 is a payload satellite owned by SpaceX/Seattle (US) in SSO that was launched on Fri, 12 Aug 2022 UTC via an FALCON 9 launch vehicle from the Air Force Western Test Range (AFWTR). Payload-class satellites include a variety of spacecraft equipped with specific instruments for various scientific and technological missions. These include communications satellites like Starlink; space stations such as the ISS; scientific satellites like the Hubble; Earth observation satellites from companies like Planet Labs, Umbra, and HawkEye 360; GPS; miniature CubeSats for education and research; and military/defense satellites.

Loading next visibility...
Identifier
53488, 2022-099Z
Orbit
SSO
Country
Flag of USUS
Related business
Manufacturer
SpaceX/Seattle
Mission
Operational Commercial Communications
Bus & Motor
STARLINK, Unknown motor
Mass
300 kg wet, ~275 kg dry
Launch date (UTC)
2022-08-12 (3 years ago)
Launch vehicle
FALCON 9
Launch site
Air Force Western Test Range (AFWTR)
Object type
Payload
Rocket body
Debris
Shape & HBR
Box + 1 Pan, 10.1 m
Radar Cross Section
13.562 m², Large (>1 m²)

Expand to show TLE details & history
Last TLE update: 13 hours ago

TLE from 13 hours ago
0 STARLINK-4421
1 53488U 22099Z   25346.90531793  .00001042  00000-0  76391-4 0  9994
2 53488  97.6014 105.7347 0000543  90.9200 269.2089 15.05644191182997
Epoch: 2025-12-12T21:43Z
TLE epoch observation values (Epoch: 2025-12-12T21:43:39.469Z)
Latitude
-0°
Longitude
57.98001°
Altitude
552.599 km
Speed
7.585 km/s
True Right ascension
07h 02m 56s
True Declination
0° 00' 00"
Sunlit
Object was in full shadow at epoch
Visualization orbit readout
Latitude
Unknown
Longitude
Unknown
Altitude
Unknown
Speed
Unknown
Apparent Right ascension
Unknown
Apparent Declination
Unknown
Sunlit
N/A
Visualization observer readout
Local Sidereal Time
09:14:00
Azimuth
Unknown
Elevation
Unknown
Doppler factor
Unknown
Orbital elements
Apogee altitude
546.898 km
Perigee altitude
546.146 km
Semi-major axis
6,924.659 km
Eccentricity
0.00005
Inclination
97.6014°
RAAN
105.7347°
Arg. of periapsis
90.92°
True anomaly
269.20268°
Mean anomaly
269.2089°
Eccentric anomaly
269.20579°
Mean motion
3.76657 °/min
Orbital period
95.58 mins
BSTAR
0.000076391
Loading maneuver chart data...
Computing Atmospheric mass density...
Loading historical data...
Loading historical data...
Loading historical data...
Loading historical data...
Loading historical data...
Loading historical data...
Loading historical data...

Documentation

Showing up to 5 results
|